Probability
0 0 0 0 0 0 0 0 1 2 3 4 4 3 4 7 10 10 9 11 13 14 15 16 19 21 21 19 17 16 15 14 12 11 9 7 6 5 3 2 2 1 1 0
0 0 0 0 0 0 0 0 1 2 3 3 3 2 3 6 9 9 8 10 13 15 16 16 18 22 21 19 17 17 15 14 12 10 9 7 6 5 3 3 3 3 2 1
0 0 0 0 0 0 0 0 1 1 2 2 2 1 2 5 8 9 9 10 13 15 16 16 18 22 21 19 18 17 15 13 11 10 9 8 6 5 4 4 5 5 4 4
0 0 0 0 0 0 0 0 0 0 1 1 1 0 2 5 7 10 11 11 12 14 15 17 20 22 21 19 18 17 15 12 10 9 9 9 9 7 6 5 4 5 5 5
0 0 0 0 0 0 0 0 0 0 0 0 0 0 1 4 8 11 13 13 12 13 15 18 21 22 21 19 17 16 15 12 9 8 10 11 12 10 9 7 5 5 5 6
0 0 0 0 0 0 0 0 0 0 0 0 0 0 1 3 7 11 14 14 13 13 15 17 18 21 22 19 17 17 16 15 13 12 14 14 13 11 10 9 8 7 7 6
0 0 0 0 0 0 0 0 0 0 0 0 0 0 1 3 6 9 12 13 13 14 14 14 15 18 20 20 19 18 18 19 21 20 18 15 12 11 12 12 11 11 9 8
0 0 0 0 0 0 0 0 0 0 0 0 0 0 2 4 8 10 11 12 14 14 15 14 15 17 19 19 20 20 20 22 25 25 20 16 13 12 13 13 12 11 10 9
0 0 0 0 0 0 0 0 0 0 0 0 0 0 2 5 10 13 13 12 13 14 16 17 17 18 20 20 19 18 20 22 24 25 22 18 16 15 14 13 12 11 9 9
0 0 0 0 0 0 0 0 0 0 0 0 0 0 2 5 10 13 14 13 14 15 17 18 18 18 20 19 16 15 18 20 21 22 22 19 17 17 16 14 12 10 9 9
0 0 0 0 0 0 0 0 0 0 0 0 0 0 2 5 8 10 11 14 17 16 16 18 18 18 17 16 13 13 15 17 18 18 19 18 17 17 16 13 10 9 8 7
0 0 0 0 0 0 0 0 0 0 0 0 0 1 3 4 5 5 7 12 18 17 16 17 17 17 16 12 10 11 12 13 14 14 15 16 16 15 13 10 8 7 8 8
0 0 0 0 0 0 0 0 0 0 0 0 0 2 3 3 2 4 6 8 13 15 14 14 15 16 15 11 9 9 10 12 12 12 12 14 15 14 12 9 8 8 8 9
0 0 0 0 0 0 0 0 0 0 0 0 0 1 2 2 3 5 6 6 8 11 11 11 12 13 11 9 8 9 11 12 13 13 13 12 12 12 11 11 10 8 8 8
0 0 0 0 0 0 0 0 0 0 0 0 0 1 2 3 4 5 6 6 8 10 11 11 10 9 8 8 9 11 12 13 14 15 14 12 10 10 11 12 11 8 7 6
0 0 0 0 0 0 0 0 0 0 1 1 0 1 3 5 5 5 6 8 9 11 12 12 11 11 9 10 12 14 14 14 15 15 14 12 10 9 11 12 11 8 7 7
0 0 0 0 0 0 0 0 0 0 2 2 2 3 6 7 7 5 6 8 9 10 10 11 12 12 12 14 16 18 18 16 16 15 14 13 11 10 10 11 11 9 8 7
0 0 0 0 0 0 0 0 0 0 1 2 3 7 9 9 9 8 7 7 7 8 8 8 9 11 13 15 17 18 19 19 17 16 15 12 10 10 10 10 9 9 7 7
0 0 0 0 0 0 0 0 0 0 0 2 5 8 10 10 10 9 8 7 7 7 7 8 9 11 13 14 15 16 18 19 18 17 15 12 11 10 9 8 8 7 6 6
0 0 0 0 0 0 0 0 0 0 0 3 6 7 8 9 9 8 7 7 7 8 8 9 11 13 15 15 13 13 14 15 14 14 12 11 11 10 9 8 7 7 6 5
0 0 0 0 0 0 0 0 0 0 0 2 5 6 6 7 8 8 8 7 7 8 8 9 11 13 14 13 10 9 9 9 8 9 9 10 11 11 10 9 8 9 8 6
0 0 0 0 0 0 1 0 0 0 0 1 4 6 6 6 7 8 8 8 7 7 7 7 9 10 10 8 6 5 4 4 4 6 8 9 10 11 11 11 11 12 11 9
0 0 0 0 0 1 2 1 0 0 0 1 4 6 7 7 7 6 6 6 5 4 5 5 5 5 5 3 3 2 2 1 2 4 6 7 9 10 11 12 13 14 13 13
0 0 0 0 0 0 1 0 0 0 1 2 5 7 7 6 5 4 5 4 3 3 3 3 3 2 1 1 1 1 1 1 2 3 4 5 7 8 9 10 11 12 13 15
0 0 0 0 0 0 0 0 0 0 1 4 7 9 7 5 4 4 4 3 3 3 3 3 3 1 0 0 0 1 2 2 3 3 3 3 5 7 7 7 7 8 10 11
0 0 0 0 0 0 0 0 0 0 1 4 8 9 7 5 5 4 3 2 3 4 4 3 2 1 0 0 0 1 2 3 3 3 2 3 4 5 5 5 5 6 7 7
Wind_Speed
3 2 4 7 7 7 5 2 2 4 3 4 5 5 7 7 7 8 7 7 8 8 6 7 8 8 7 6 5 5 4 3 3 2 2 1 1 1 0 0 1 1 1 1
4 5 10 6 4 4 3 1 2 2 2 4 5 3 5 7 8 10 9 9 9 7 6 6 7 7 7 6 6 5 4 4 3 2 2 2 2 1 1 0 0 1 1 1
6 9 5 3 3 2 3 4 4 3 1 3 5 2 1 3 3 5 6 8 9 11 10 9 8 7 7 6 6 6 5 4 3 3 2 2 2 1 1 1 1 0 1 1
6 8 4 3 5 4 4 5 4 4 4 1 3 2 4 3 3 4 5 6 7 8 8 8 7 7 7 7 6 6 5 4 3 3 3 3 2 1 1 1 0 0 0 1
6 4 3 4 6 4 4 3 3 3 4 2 2 3 4 1 4 7 7 8 9 9 9 9 9 9 7 7 6 6 6 5 4 4 4 3 2 1 1 0 0 0 1 1
7 5 3 5 3 2 3 4 5 5 5 2 2 3 4 4 8 9 9 10 10 9 9 8 8 7 6 6 5 6 6 5 5 5 4 4 4 2 1 1 1 0 0 1
7 7 5 1 2 4 4 6 5 6 4 3 2 2 5 7 5 8 10 10 10 9 9 8 7 8 8 7 6 6 6 5 5 5 4 4 4 4 3 2 2 1 0 0
2 7 5 2 4 3 1 8 7 4 4 3 2 1 4 4 2 3 5 7 9 8 7 8 8 8 8 7 6 6 6 5 5 5 4 4 4 3 2 2 2 2 1 1
3 6 5 3 2 4 1 1 7 7 2 1 1 1 4 3 3 3 4 6 8 8 8 8 8 7 7 7 7 7 6 5 5 5 4 3 3 3 3 2 2 1 1 1
6 3 6 4 4 3 4 5 6 5 4 1 2 2 3 4 4 4 5 6 6 7 7 7 7 7 7 7 6 6 6 5 4 4 4 4 3 2 2 2 1 1 0 0
4 4 5 4 1 1 2 2 4 4 6 6 3 5 7 10 8 6 6 6 7 8 8 7 6 6 6 6 6 6 5 5 4 4 3 3 2 2 2 1 1 1 1 1
2 6 2 5 5 2 2 3 6 5 2 5 4 6 5 7 6 6 5 5 5 6 7 7 6 6 6 5 5 5 5 5 4 4 4 3 3 3 2 2 1 1 1 1
3 6 2 8 8 6 3 1 3 6 5 4 4 5 3 4 5 5 6 5 5 6 6 6 6 6 6 5 5 5 5 5 4 4 4 3 3 3 2 2 2 2 2 1
5 5 7 7 7 3 2 3 0 5 3 3 5 5 4 5 5 4 5 5 5 6 6 6 6 5 5 5 5 5 4 4 5 4 4 3 3 3 3 3 2 3 3 2
6 3 2 4 4 0 1 1 2 2 5 6 6 7 9 9 9 6 5 5 5 5 5 6 6 5 5 4 4 4 3 3 4 4 3 3 3 3 3 3 3 2 2 3
4 3 2 3 2 3 3 3 3 1 2 3 4 3 4 5 5 4 5 7 6 5 5 5 6 5 5 5 5 4 4 4 4 4 3 2 2 2 3 3 3 3 3 2
2 3 3 2 3 4 3 2 0 1 0 4 4 6 5 5 5 7 7 7 6 6 6 5 5 4 4 5 5 5 4 3 3 3 3 3 3 3 3 3 3 3 3 3
4 3 3 1 3 0 6 3 3 5 4 2 2 3 6 7 5 4 5 7 6 6 6 5 5 4 3 2 3 3 4 3 3 2 2 2 2 3 3 3 3 3 3 3
6 6 3 3 2 3 5 3 1 4 3 3 4 5 5 6 6 2 1 4 5 5 5 4 4 4 3 3 3 4 3 3 2 2 2 2 3 3 3 3 4 3 3 3
4 6 5 3 2 4 6 5 1 6 2 3 4 6 6 5 4 2 1 4 5 4 4 3 3 4 4 2 3 4 3 2 2 3 3 3 3 3 3 4 4 3 3 3
4 3 2 3 3 4 6 4 4 4 5 3 3 3 4 3 4 4 3 4 4 4 3 4 4 4 2 2 4 4 2 2 3 2 2 2 2 2 3 2 2 3 3 2
2 1 1 2 2 5 5 3 3 5 3 2 3 4 5 5 5 5 5 4 5 4 4 3 4 2 1 2 3 2 2 3 2 1 1 2 2 2 1 2 2 2 2 2
1 3 4 4 5 4 1 3 3 4 4 2 3 3 7 7 6 5 4 3 4 4 3 2 2 2 1 1 2 1 2 2 1 1 1 2 2 2 2 2 2 2 2 2
3 2 3 2 2 1 2 3 4 5 5 4 5 5 7 7 6 5 5 3 3 2 2 2 2 1 1 1 0 1 2 1 1 1 2 2 2 2 2 1 1 2 2 3
3 1 2 1 2 3 4 3 3 5 6 7 6 4 6 8 6 5 4 3 2 2 1 2 1 1 1 1 1 1 1 1 1 2 2 2 2 2 2 1 2 3 3 4
2 2 3 4 4 2 3 2 3 5 4 5 6 4 2 4 5 5 4 3 3 2 2 1 1 0 1 1 1 2 2 1 1 1 2 2 2 2 1 1 2 3 3 3
Wind_Direction
318 62 251 234 208 202 201 205 238 239 185 139 147 147 164 172 155 158 161 165 170 177 173 157 155 152 144 143 140 145 140 151 141 134 135 120 124 140 274 244 200 173 173 167
354 269 244 233 220 166 166 205 231 235 185 129 131 150 171 178 179 171 173 177 175 172 161 161 155 154 155 153 153 151 151 149 150 158 155 145 143 158 177 234 47 168 151 156
224 247 257 257 245 181 218 206 208 199 142 89 106 31 235 198 191 173 180 180 173 173 172 173 166 161 158 161 164 161 161 155 156 146 117 101 70 32 14 353 347 306 132 140
249 253 258 251 236 196 246 235 179 154 115 146 122 156 256 216 206 191 187 177 176 177 171 171 166 163 168 173 169 164 163 158 155 143 134 138 145 171 226 234 241 302 98 132
270 272 269 259 241 199 222 207 140 142 126 99 44 119 270 202 197 210 199 185 181 180 175 174 173 171 169 170 171 171 165 164 162 155 155 150 157 182 206 206 70 20 21 76
265 277 237 233 258 206 160 64 40 47 72 60 253 138 258 226 210 203 202 191 184 177 171 171 171 160 160 167 171 170 166 175 173 167 165 164 167 168 149 150 150 244 358 11
311 307 294 258 339 339 73 81 34 7 18 255 257 128 241 244 223 194 193 195 179 173 168 165 165 166 168 171 175 172 171 181 181 176 176 176 174 166 169 175 172 167 188 281
260 294 287 274 191 203 195 130 150 188 219 271 338 193 267 271 252 157 162 167 160 158 160 164 170 167 169 171 172 170 173 178 176 177 183 178 169 170 175 173 164 176 196 224
191 261 289 302 241 148 136 146 164 135 122 84 305 305 324 29 78 124 144 140 152 158 163 167 169 164 165 167 175 175 173 176 175 173 168 172 183 183 179 175 172 197 207 211
165 247 298 308 25 20 149 147 89 104 132 141 303 259 223 222 198 183 166 164 162 160 162 167 169 166 169 174 175 168 164 175 180 174 172 172 181 174 165 154 173 184 207 163
145 159 302 354 45 266 18 52 106 119 144 147 201 259 221 203 192 176 179 172 164 163 168 169 170 171 166 162 164 165 164 158 158 163 155 149 154 148 128 128 141 140 134 124
147 125 256 274 265 207 155 182 145 142 188 156 161 254 245 186 185 168 167 169 164 156 161 162 163 160 158 163 165 163 162 165 171 164 154 162 161 156 156 165 165 137 146 163
120 106 58 341 342 356 12 312 141 132 120 142 155 246 253 168 167 169 165 161 160 160 161 162 160 160 161 163 163 161 163 167 162 149 150 160 168 169 180 188 172 154 163 179
108 110 153 191 223 246 308 323 80 107 126 178 200 200 220 184 177 185 173 168 171 170 164 157 158 161 161 156 153 157 161 162 158 151 153 166 185 191 197 196 185 179 173 179
82 104 184 210 224 219 358 1 51 103 176 176 210 194 207 194 185 189 173 149 144 145 147 153 150 148 141 136 140 150 155 159 157 156 169 191 201 199 194 192 192 191 186 197
58 98 45 349 352 25 32 27 44 59 119 140 141 211 215 184 156 151 148 141 141 143 144 146 138 136 139 144 149 153 162 170 154 159 175 180 189 207 201 200 198 196 204 210
35 84 70 294 323 38 355 301 70 39 61 145 178 213 162 149 158 167 162 147 152 147 141 140 142 146 157 164 156 155 164 162 153 166 179 181 189 204 207 208 200 212 215 212
140 106 125 142 41 257 251 277 106 90 38 31 136 147 147 151 148 150 152 143 150 140 136 142 149 151 142 136 138 146 142 139 145 159 181 203 201 205 209 207 216 222 218 217
146 138 120 115 149 266 303 328 28 108 21 6 101 105 109 110 88 46 109 134 147 146 144 144 152 147 137 135 143 131 136 140 144 171 200 206 197 204 213 217 224 224 217 230
65 104 120 133 154 222 249 277 200 99 20 321 122 136 144 124 112 222 171 109 106 104 114 124 122 114 117 127 131 128 146 149 178 208 220 216 203 205 220 224 229 225 219 230
13 32 114 165 193 252 264 292 58 108 232 257 134 137 136 145 174 178 135 104 103 105 101 109 107 105 120 123 118 129 149 202 226 230 225 223 224 226 226 226 234 234 228 233
162 133 194 141 165 251 297 47 113 201 211 116 114 127 120 118 111 113 117 113 107 95 84 90 103 106 112 107 113 134 209 236 234 214 219 239 246 249 239 223 247 243 223 229
126 184 186 173 203 242 318 122 160 145 119 94 100 117 115 114 115 117 116 112 105 100 94 87 114 119 84 78 120 155 261 262 224 235 256 259 255 252 240 217 233 239 222 227
328 27 77 53 319 313 49 77 73 87 98 99 105 115 118 123 127 128 128 123 113 113 109 96 97 100 350 325 299 227 264 270 213 242 262 267 271 281 285 266 222 219 228 235
267 35 59 35 298 9 12 47 72 79 87 91 96 107 135 135 136 141 142 142 130 113 88 94 106 161 261 298 308 307 319 342 291 267 270 279 275 256 254 266 250 234 233 221
253 175 164 213 223 182 256 281 97 96 101 112 110 92 114 136 138 135 140 149 137 128 119 112 123 207 277 340 336 326 335 342 318 301 293 285 277 270 251 256 307 312 272 274